Tracking 19717 objects as of 25-Jun-2019
HD Live streaming from Space Station
objects crossing your sky now

THORAD AGENA D DEB

Track THORAD AGENA D DEB now!
10-day predictions


NORAD ID: 4753
Int'l Code: 1970-025DB
Perigee: 967.4 km
Apogee: 980.7 km
Inclination: 100.0 °
Period: 104.4 minutes
Semi major axis: 7345 km
RCS: 0.0848 m2 (small)
Launch date: April 8, 1970
Source: United States (US)
Launch site: AIR FORCE WESTERN TEST RANGE (AFWTR)

Note: This is SATELLITE DEBRIS
aabbcc
Your satellite tracking list
Your tracking list is empty




NASA's NSSDC Master Catalog

Two Line Element Set (TLE):
1  4753U 70025DB  19176.06868351  .00000227  00000-0  26944-3 0  9993
2  4753  99.9859 119.7208 0009047  69.5753 351.7572 13.79156638451417
Source of the keplerian elements: AFSPC